Flag for France Weather past 2 weeks in Reims, France

Now
82 °F

Clear.


Feels Like: 82 °F
Forecast: 60 / 82 °F
Wind: 17 mph from Northeast

Location: Chalons-Vatry

Current Time: Jul 23, 2014 at 6:41:08 PM

Latest Report: Jul 23, 2014 at 6:00 PM


Visibility: N/A

Pressure: 29.92 "Hg

Humidity: 42%

Dew point: 57 °F

Location of ReimsLocation

Historic Weather in Reims — Graph

°F

Reims temperature yesterday

Maximum temperature yesterday: 72 °F (at 5:30 PM)
Minimum temperature yesterday: 63 °F (at 4:00 AM)
Average temperature yesterday: 66 °F

Past Weeks' High & Low Weather Summary

 TemperatureHumidityPressure
High95 °F (Jul 18, 4:00 PM)100% (Jul 9, 5:00 AM)30.18 "Hg (Jul 9, 5:00 AM)
Low54 °F (Jul 9, 5:00 AM)32% (Jul 18, 5:00 PM)29.80 "Hg (Jul 10, 1:30 AM)
Average67 °F76%29.99 "Hg
* Reported Jul 8 5:00 PM — Jul 23 5:30 PM, Reims, Weather by CustomWeather, © 2014

Note: Actual official high and low records may vary slightly from our data, if they occured in-between our weather recording intervals... More about our weather records

Advertising

Reims weather history for previous 24 hours

 ConditionsComfort  
Time TempWeatherWind HumidityBarometerVisibility
5:30 PM
Jul 23
84 °FPleasantly warm.23 mph40%29.92 "HgN/A
5:00 PM84 °FScattered clouds.14 mph37%29.92 "HgN/A
4:30 PM84 °FPleasantly warm.12 mph40%29.95 "HgN/A
4:00 PM84 °FPleasantly warm.9 mph40%29.95 "HgN/A
3:30 PM84 °FClear.10 mph43%29.95 "HgN/A
3:00 PM86 °FScattered clouds.12 mph40%29.95 "HgN/A
1:00 PM81 °FClear.7 mph58%29.98 "HgN/A
12:00 PM77 °FClear.12 mph65%30.01 "Hg6 mi
11:30 AM75 °FClear.10 mph69%30.01 "HgN/A
11:00 AM73 °FClear.10 mph74%30.01 "HgN/A
10:00 AM72 °FClear.12 mph78%30.01 "Hg4 mi
8:00 AM63 °FFog.8 mph100%30.01 "Hg1 mi
7:30 AM63 °FFog.8 mph94%30.04 "Hg1 mi
7:00 AM63 °FFog.9 mph94%30.04 "Hg1 mi
6:30 AM63 °FFog.10 mph94%30.04 "Hg1 mi
6:00 AM63 °FFog.9 mph94%30.04 "Hg1 mi
5:30 AM63 °FFog.9 mph94%30.04 "Hg2 mi
5:00 AM63 °FFog.9 mph94%30.04 "Hg2 mi
4:30 AM63 °FFog.9 mph94%30.04 "Hg2 mi
4:00 AM63 °FFog.7 mph94%30.04 "Hg2 mi
3:30 AM63 °FFog.6 mph94%30.04 "Hg2 mi
3:00 AM64 °FFog.8 mph94%30.04 "Hg2 mi
2:30 AM64 °FFog.8 mph94%30.04 "Hg2 mi
2:00 AM64 °FFog.9 mph94%30.04 "Hg2 mi
1:00 AM66 °FFog.12 mph94%30.07 "Hg3 mi
7:00 PM
Jul 22
72 °FPartly sunny.15 mph78%30.04 "HgN/A
6:30 PM72 °FPassing clouds.14 mph78%30.04 "HgN/A
6:00 PM72 °FScattered clouds.14 mph78%30.07 "HgN/A
Weather by CustomWeather, © 2014

See weather overviewHow to use our weather pages